TimeMDT,TemperatureF,Dew PointF,Humidity,Sea Level PressureIn,VisibilityMPH,Wind Direction,Wind SpeedMPH,Gust SpeedMPH,PrecipitationIn,Events,Conditions,WindDirDegrees,DateUTC
12:15 AM,54.7,38.5,54,29.93,10.0,West,15.0,21.9,N/A,,Clear,280,2013-09-23 06:15:00
12:35 AM,54.1,35.8,50,29.93,10.0,West,13.8,-,N/A,,Clear,270,2013-09-23 06:35:00
12:55 AM,51.1,37.9,61,29.93,10.0,WSW,11.5,-,N/A,,Clear,250,2013-09-23 06:55:00
1:15 AM,51.8,35.8,54,29.94,10.0,West,10.4,-,N/A,,Clear,270,2013-09-23 07:15:00
1:35 AM,51.8,33.8,50,29.95,10.0,West,10.4,-,N/A,,Clear,270,2013-09-23 07:35:00
1:55 AM,49.8,34.7,56,29.95,10.0,WSW,10.4,-,N/A,,Clear,250,2013-09-23 07:55:00
2:15 AM,47.5,35.6,63,29.95,10.0,SW,9.2,-,N/A,,Clear,230,2013-09-23 08:15:00
2:35 AM,46.4,35.4,66,29.95,10.0,SW,8.1,-,N/A,,Clear,230,2013-09-23 08:35:00
2:55 AM,45.1,36.0,70,29.95,10.0,WSW,8.1,-,N/A,,Clear,250,2013-09-23 08:55:00
3:15 AM,43.7,35.8,74,29.95,10.0,WSW,8.1,-,N/A,,Clear,240,2013-09-23 09:15:00
3:35 AM,43.2,35.8,75,29.95,10.0,WSW,9.2,-,N/A,,Clear,250,2013-09-23 09:35:00
3:55 AM,45.9,32.4,59,29.95,10.0,West,12.7,-,N/A,,Clear,270,2013-09-23 09:55:00
4:15 AM,49.3,30.2,48,29.95,10.0,West,15.0,20.7,N/A,,Clear,270,2013-09-23 10:15:00
4:35 AM,49.1,30.0,48,29.96,10.0,West,9.2,-,N/A,,Clear,270,2013-09-23 10:35:00
4:55 AM,47.8,30.9,52,29.96,10.0,WSW,5.8,16.1,N/A,,Clear,250,2013-09-23 10:55:00
5:15 AM,46.0,31.8,58,29.96,10.0,SW,6.9,-,N/A,,Clear,230,2013-09-23 11:15:00
5:35 AM,45.1,32.4,61,29.96,10.0,South,5.8,-,N/A,,Clear,170,2013-09-23 11:35:00
5:55 AM,44.6,32.4,62,29.97,10.0,SSE,5.8,-,N/A,,Clear,150,2013-09-23 11:55:00
6:15 AM,46.4,30.9,55,29.98,10.0,SE,3.5,-,N/A,,Clear,140,2013-09-23 12:15:00
6:35 AM,47.1,30.6,53,29.98,10.0,Calm,Calm,-,N/A,,Clear,0,2013-09-23 12:35:00
6:55 AM,49.3,30.2,48,29.99,10.0,Calm,Calm,-,N/A,,Clear,0,2013-09-23 12:55:00
7:15 AM,49.6,30.4,48,30.00,10.0,West,3.5,-,N/A,,Clear,260,2013-09-23 13:15:00
7:35 AM,50.4,31.5,48,30.00,10.0,WNW,9.2,-,N/A,,Clear,300,2013-09-23 13:35:00
7:55 AM,51.4,32.9,49,30.01,10.0,WSW,4.6,-,N/A,,Clear,250,2013-09-23 13:55:00
8:15 AM,52.7,33.6,48,30.02,10.0,West,4.6,-,N/A,,Clear,260,2013-09-23 14:15:00
8:35 AM,54.5,33.3,45,30.02,10.0,West,5.8,-,N/A,,Clear,280,2013-09-23 14:35:00
8:55 AM,55.8,33.6,43,30.02,10.0,West,8.1,-,N/A,,Clear,270,2013-09-23 14:55:00
9:15 AM,57.0,34.9,43,30.03,10.0,WNW,13.8,-,N/A,,Clear,300,2013-09-23 15:15:00
9:35 AM,57.6,34.9,43,30.04,10.0,WNW,11.5,-,N/A,,Clear,290,2013-09-23 15:35:00
9:55 AM,58.6,35.2,42,30.04,10.0,West,9.2,-,N/A,,Clear,270,2013-09-23 15:55:00
10:15 AM,59.5,34.9,40,30.05,10.0,WNW,12.7,19.6,N/A,,Clear,300,2013-09-23 16:15:00
10:35 AM,60.4,35.8,40,30.05,10.0,WNW,15.0,20.7,N/A,,Clear,290,2013-09-23 16:35:00
10:55 AM,60.6,37.2,42,30.06,10.0,NW,17.3,24.2,N/A,,Clear,310,2013-09-23 16:55:00
11:15 AM,61.0,37.6,42,30.07,10.0,NW,21.9,26.5,N/A,,Clear,310,2013-09-23 17:15:00
11:35 AM,61.5,37.2,41,30.06,10.0,WNW,17.3,27.6,N/A,,Clear,290,2013-09-23 17:35:00
11:55 AM,62.2,34.3,35,30.06,10.0,WNW,18.4,25.3,N/A,,Clear,300,2013-09-23 17:55:00
12:15 PM,63.1,36.0,36,30.06,10.0,West,23.0,27.6,N/A,,Clear,280,2013-09-23 18:15:00
12:35 PM,63.0,34.9,35,30.05,10.0,WNW,21.9,27.6,N/A,,Clear,300,2013-09-23 18:35:00
12:55 PM,64.6,34.7,33,30.05,10.0,West,24.2,28.8,N/A,,Clear,280,2013-09-23 18:55:00
1:15 PM,64.8,34.3,32,30.05,10.0,West,18.4,26.5,N/A,,Clear,280,2013-09-23 19:15:00
1:35 PM,65.3,33.6,31,30.05,10.0,West,24.2,28.8,N/A,,Clear,280,2013-09-23 19:35:00
1:55 PM,66.0,33.1,29,30.04,10.0,West,27.6,34.5,N/A,,Clear,280,2013-09-23 19:55:00
2:15 PM,66.7,33.3,29,30.04,10.0,West,20.7,32.2,N/A,,Clear,280,2013-09-23 20:15:00
2:35 PM,67.3,32.2,27,30.04,10.0,West,21.9,32.2,N/A,,Clear,280,2013-09-23 20:35:00
2:55 PM,67.6,32.0,27,30.05,10.0,WNW,20.7,32.2,N/A,,Clear,290,2013-09-23 20:55:00
3:15 PM,68.2,31.8,26,30.05,10.0,West,16.1,25.3,N/A,,Clear,280,2013-09-23 21:15:00
3:35 PM,68.4,32.7,27,30.06,10.0,WNW,13.8,21.9,N/A,,Clear,300,2013-09-23 21:35:00
3:55 PM,68.5,32.4,26,30.06,10.0,WNW,15.0,21.9,N/A,,Clear,290,2013-09-23 21:55:00
4:15 PM,68.4,32.4,26,30.07,10.0,WNW,12.7,21.9,N/A,,Clear,300,2013-09-23 22:15:00
4:35 PM,68.5,32.0,26,30.07,10.0,WNW,15.0,-,N/A,,Clear,300,2013-09-23 22:35:00
4:55 PM,68.0,30.9,25,30.07,10.0,WNW,15.0,23.0,N/A,,Clear,300,2013-09-23 22:55:00
5:15 PM,67.1,30.4,25,30.08,10.0,WNW,18.4,25.3,N/A,,Clear,300,2013-09-23 23:15:00
5:35 PM,66.6,30.2,26,30.08,10.0,WNW,17.3,23.0,N/A,,Clear,300,2013-09-23 23:35:00
5:55 PM,65.8,29.7,26,30.09,10.0,WNW,17.3,21.9,N/A,,Clear,300,2013-09-23 23:55:00
6:15 PM,64.4,30.2,28,30.11,10.0,WNW,12.7,-,N/A,,Clear,300,2013-09-24 00:15:00
6:35 PM,62.4,31.3,31,30.11,10.0,WNW,10.4,-,N/A,,Clear,300,2013-09-24 00:35:00
6:55 PM,58.5,33.1,38,30.12,10.0,WNW,5.8,-,N/A,,Clear,300,2013-09-24 00:55:00
7:15 PM,57.4,33.3,40,30.13,10.0,West,8.1,-,N/A,,Clear,280,2013-09-24 01:15:00
7:35 PM,55.9,34.7,45,30.13,10.0,West,5.8,-,N/A,,Clear,270,2013-09-24 01:35:00
7:55 PM,55.9,34.0,44,30.14,10.0,WNW,8.1,-,N/A,,Clear,290,2013-09-24 01:55:00
8:15 PM,54.5,34.5,47,30.15,10.0,WNW,12.7,-,N/A,,Clear,290,2013-09-24 02:15:00
8:35 PM,53.6,34.5,48,30.16,10.0,WNW,10.4,-,N/A,,Clear,290,2013-09-24 02:35:00
8:55 PM,53.6,34.9,49,30.17,10.0,WNW,9.2,-,N/A,,Clear,300,2013-09-24 02:55:00
9:15 PM,52.7,35.8,53,30.17,10.0,WNW,8.1,-,N/A,,Clear,290,2013-09-24 03:15:00
9:35 PM,52.0,36.1,55,30.19,10.0,West,8.1,-,N/A,,Clear,280,2013-09-24 03:35:00
9:55 PM,52.0,36.9,56,30.19,10.0,WNW,11.5,-,N/A,,Clear,290,2013-09-24 03:55:00
10:15 PM,52.7,37.0,55,30.20,10.0,NW,9.2,-,N/A,,Clear,310,2013-09-24 04:15:00
10:35 PM,51.6,37.9,60,30.20,10.0,NW,4.6,-,N/A,,Clear,320,2013-09-24 04:35:00
10:55 PM,48.2,38.3,69,30.21,10.0,NNW,6.9,-,N/A,,Clear,340,2013-09-24 04:55:00
11:15 PM,48.4,38.5,69,30.21,10.0,NNW,6.9,-,N/A,,Clear,340,2013-09-24 05:15:00
11:35 PM,46.4,38.7,74,30.20,10.0,NW,9.2,-,N/A,,Clear,320,2013-09-24 05:35:00
11:55 PM,44.8,39.0,80,30.22,10.0,Calm,Calm,-,N/A,,Clear,0,2013-09-24 05:55:00